Regional Weather Roundup
Issued by NWS

Home | Current Version | Previous Version | Graphics & Text | Print | Product List | Glossary On
Versions: 1 2 3 4 5 6 7 8 9 10 11 12 13 14 15 16 17 18 19 20 21 22 23 24 25 26 27 28 29 30 31 32 33 34 35 36 37 38 39 40 41 42 43 44 45 46 47 48 49 50
000
ASUS43 KFSD 250902
RWRSD

WEATHER ROUNDUP FOR SOUTH DAKOTA
NATIONAL WEATHER SERVICE SIOUX FALLS SD
400 AM CDT SAT APR 25 2015

NOTE: "FAIR" INDICATES FEW OR NO CLOUDS BELOW 12,000 FEET WITH NO
SIGNIFICANT WEATHER AND/OR OBSTRUCTIONS TO VISIBILITY.


SDZ001>005-009-010-012>017-251000-
NORTHWEST AND NORTH CENTRAL SOUTH DAKOTA

CITY           SKY/WX    TMP DP  RH WIND       PRES   REMARKS
BUFFALO          N/A     41  37  86 E12       29.61R
FAITH            N/A     43  41  93 E10       29.66R
MOBRIDGE       CLOUDY    46  43  89 NE10      29.66R FOG
$$

SDZ012>016-024>037-041>051-057-063-072>074-251000-
SOUTHWEST AND SOUTH CENTRAL SOUTH DAKOTA

CITY           SKY/WX    TMP DP  RH WIND       PRES   REMARKS
RAPID CTY ARPT PTCLDY    41  37  86 NW9       29.65R
PIERRE         LGT RAIN  47  46  97 E14       29.60S FOG
CUSTER         PTCLDY    34  32  92 NW3       29.70S
ELLSWORTH AFB  PTCLDY    41  37  85 W10       29.65R
PHILIP         CLOUDY    48  43  82 NE13      29.63R
PINE RIDGE     MOCLDY    41  39  93 SW7       29.63S
WINNER         FAIR      52  44  74 NE10      29.57R
$$

SDZ004>011-016>023-039-040-251000-
NORTHEAST SOUTH DAKOTA

CITY           SKY/WX    TMP DP  RH WIND       PRES   REMARKS
ABERDEEN       CLOUDY    45  42  89 NE13      29.70R
WATERTOWN      CLOUDY    43  41  93 E14G22    29.65F FOG
BROOKINGS      CLOUDY    46  45  93 E9        29.66R
SISSETON         N/A     43  42  97 SE14      29.72S
$$

SDZ017-020-022-023-036>040-048>070-251000-
SOUTHEAST SOUTH DAKOTA

CITY           SKY/WX    TMP DP  RH WIND       PRES   REMARKS
SIOUX FALLS    CLOUDY    47  44  90 E13       29.61F
HURON          CLOUDY    49  47  93 NE10      29.62R
MITCHELL       CLOUDY    50  48  93 E10       29.58R
YANKTON        CLOUDY    52  46  82 NE18      29.57S
$$

ABBREVIATIONS USED IN REMARKS
   TC - TEMPERATURE IN CELSIUS
  WCI - WIND CHILL INDEX
   HX - HEAT INDEX
  VSB - VISIBILITY




USA.gov is the U.S. government's official web portal to all federal, state and local government web resources and services.